TimePST,TemperatureF,Dew PointF,Humidity,Sea Level PressureIn,VisibilityMPH,Wind Direction,Wind SpeedMPH,Gust SpeedMPH,PrecipitationIn,Events,Conditions,WindDirDegrees,DateUTC
12:53 AM,33.1,27.0,78,29.98,10.0,SW,12.7,-,N/A,,Mostly Cloudy,220,2013-02-17 08:53:00
1:53 AM,32.0,27.0,82,29.99,10.0,SW,12.7,-,N/A,,Overcast,230,2013-02-17 09:53:00
2:53 AM,33.1,26.1,75,30.00,10.0,West,11.5,-,N/A,,Overcast,260,2013-02-17 10:53:00
3:18 AM,33.8,28.4,81,29.96,3.0,West,11.5,-,0.00,Snow,Light Snow,270,2013-02-17 11:18:00
3:53 AM,33.1,30.0,89,30.00,7.0,SSW,9.2,-,0.00,Snow,Light Snow,210,2013-02-17 11:53:00
4:53 AM,30.2,26.6,86,29.97,10.0,SW,12.7,-,N/A,,Mostly Cloudy,230,2013-02-17 12:53:00
5:53 AM,30.9,26.1,82,30.03,10.0,WSW,17.3,-,N/A,,Mostly Cloudy,240,2013-02-17 13:53:00
6:53 AM,28.9,25.0,85,30.04,10.0,SSW,10.4,-,N/A,,Partly Cloudy,210,2013-02-17 14:53:00
7:53 AM,30.0,25.0,82,30.06,10.0,SW,11.5,-,N/A,,Scattered Clouds,230,2013-02-17 15:53:00
8:53 AM,34.0,26.1,73,30.06,10.0,SW,6.9,-,N/A,,Scattered Clouds,230,2013-02-17 16:53:00
9:53 AM,37.9,26.1,62,30.07,10.0,WSW,11.5,-,N/A,,Scattered Clouds,250,2013-02-17 17:53:00
10:53 AM,41.0,25.0,53,30.08,10.0,West,15.0,-,N/A,,Scattered Clouds,260,2013-02-17 18:53:00
11:53 AM,42.1,25.0,51,30.08,10.0,West,16.1,23.0,N/A,,Scattered Clouds,270,2013-02-17 19:53:00
12:53 PM,43.0,26.1,51,30.07,10.0,West,12.7,-,N/A,,Mostly Cloudy,260,2013-02-17 20:53:00
1:53 PM,42.1,26.1,53,30.07,10.0,WSW,13.8,-,N/A,,Mostly Cloudy,250,2013-02-17 21:53:00
2:53 PM,41.0,25.0,53,30.07,10.0,West,12.7,-,N/A,,Mostly Cloudy,270,2013-02-17 22:53:00
3:53 PM,41.0,26.1,55,30.08,10.0,WSW,12.7,-,N/A,,Scattered Clouds,250,2013-02-17 23:53:00
4:53 PM,39.0,25.0,57,30.09,10.0,WSW,8.1,-,N/A,,Mostly Cloudy,240,2013-02-18 00:53:00
5:53 PM,35.1,23.0,61,30.10,10.0,SW,4.6,-,N/A,,Mostly Cloudy,230,2013-02-18 01:53:00
6:53 PM,35.1,23.0,61,30.10,10.0,WSW,5.8,-,N/A,,Overcast,240,2013-02-18 02:53:00
7:53 PM,33.1,24.1,70,30.11,10.0,WSW,8.1,-,N/A,,Overcast,250,2013-02-18 03:53:00
9:53 PM,28.9,24.1,82,30.12,10.0,WSW,5.8,-,N/A,,Scattered Clouds,240,2013-02-18 05:53:00
10:53 PM,30.0,24.1,79,30.11,10.0,SW,4.6,-,N/A,,Scattered Clouds,220,2013-02-18 06:53:00
11:53 PM,30.0,24.1,79,30.11,10.0,NE,3.5,-,N/A,,Scattered Clouds,40,2013-02-18 07:53:00